Weather History for Tillamook, OR

Change the Weather History Date:

Thursday, August 15, 2013

  Actual Average (KMMV) Record (KMMV)
Temperature  
Mean Temperature 64 °F 67 °F  
Max Temperature 69 °F 83 °F 104 °F (1923)
Min Temperature 60 °F 51 °F 37 °F (1937)
Degree Days  
Heating Degree Days 0 1  
Month to date heating degree days 15  
Since 1 July heating degree days 59  
Cooling Degree Days 0 3  
Month to date cooling degree days 45  
Year to date cooling degree days 145  
Growing Degree Days 14 (Base 50)    
Moisture  
Dew Point 63 °F    
Average Humidity 95    
Maximum Humidity 100    
Minimum Humidity 78    
Precipitation  
Precipitation 0.18 in 0.02 in 0.84 in (1912)
Month to date precipitation 0.21  
Year to date precipitation 21.96  
Sea Level Pressure  
Sea Level Pressure 29.98 in    
Wind  
Wind Speed 1 mph (West)    
Max Wind Speed 7 mph    
Max Gust Speed -    
Visibility 6 miles    
Events Rain    
T = Trace of Precipitation, MM = Missing Value Source: NWS Daily Summary

Daily Weather History Graph

Daily Weather History Graph

Search for Another Location

Airport:

Trip Planner

Search our weather history database for the weather conditions in past years. The results will help you decide how hot, cold, wet, or windy it might be!

Date:

Astronomy

Aug. 15, 2013 Rise Set
Actual Time 7:16 AM MDT 9:21 PM MDT
Civil Twilight 6:44 AM MDT 9:54 PM MDT
Nautical Twilight 6:04 AM MDT 10:33 PM MDT
Astronomical Twilight 5:20 AM MDT 11:17 PM MDT
Moon 4:50 PM MDT (8/15) 1:26 AM MDT (8/15)
Length of Visible Light 15h 09m
Length of Day
14h 05m
Waxing Gibbous, 65% of the Moon is Illuminated
Aug 15
Waxing Gibbous
Aug 20
Full
Aug 28
Last Quarter
Sep 5
New
Sep 12
First Quarter

Hourly Weather History & Observations

Time (MDT) Temp. Dew Point Humidity Pressure Visibility Wind Dir Wind Speed Gust Speed Precip Events Conditions
12:15 AM 62.6 °F 62.6 °F 100% 29.97 in 10.0 mi Calm Calm - N/A   Overcast
12:35 AM 62.6 °F 62.6 °F 100% 29.97 in 10.0 mi Calm Calm - N/A   Overcast
12:55 AM 62.6 °F 62.6 °F 100% 29.97 in 2.5 mi Calm Calm - N/A   Drizzle
1:15 AM 62.6 °F 62.6 °F 100% 29.98 in 5.0 mi Calm Calm - 0.01 in   Drizzle
1:35 AM 62.6 °F 62.6 °F 100% 29.98 in 2.5 mi Calm Calm - 0.02 in   Drizzle
1:55 AM 62.6 °F 62.6 °F 100% 29.97 in 2.5 mi East 3.5 mph - 0.04 in Rain Heavy Rain
2:15 AM 62.6 °F 62.6 °F 100% 29.97 in 2.5 mi Calm Calm - 0.01 in   Heavy Drizzle
2:35 AM 62.6 °F 62.6 °F 100% 29.97 in 3.0 mi Calm Calm - 0.03 in   Drizzle
2:55 AM 62.6 °F 62.6 °F 100% 29.97 in 2.5 mi Calm Calm - 0.04 in   Heavy Drizzle
3:15 AM 62.6 °F 62.6 °F 100% 29.96 in 2.5 mi Calm Calm - N/A   Drizzle
3:35 AM 62.6 °F 62.6 °F 100% 29.96 in 3.0 mi Calm Calm - 0.01 in   Drizzle
3:55 AM 62.6 °F 62.6 °F 100% 29.96 in 4.0 mi Calm Calm - 0.02 in Rain Light Rain
4:15 AM 62.6 °F 62.6 °F 100% 29.96 in 2.5 mi Calm Calm - N/A   Light Drizzle
4:35 AM 62.6 °F 62.6 °F 100% 29.96 in 3.0 mi Calm Calm - N/A   Overcast
4:55 AM 62.6 °F 62.6 °F 100% 29.96 in 3.0 mi Calm Calm - 0.01 in   Drizzle
5:15 AM 62.6 °F 62.6 °F 100% 29.96 in 3.0 mi Calm Calm - N/A   Drizzle
5:35 AM 62.6 °F 62.6 °F 100% 29.96 in 4.0 mi Calm Calm - 0.02 in   Drizzle
5:55 AM 62.6 °F 62.6 °F 100% 29.96 in 4.0 mi Calm Calm - 0.02 in   Light Drizzle
6:15 AM 62.6 °F 62.6 °F 100% 29.95 in 3.0 mi Calm Calm - 0.01 in   Light Drizzle
6:35 AM 62.6 °F 62.6 °F 100% 29.96 in 2.5 mi Calm Calm - 0.01 in Rain Light Rain
6:55 AM 62.6 °F 62.6 °F 100% 29.96 in 2.5 mi Calm Calm - 0.01 in   Light Drizzle
7:15 AM 60.8 °F 60.8 °F 100% 29.96 in 2.0 mi Calm Calm - N/A   Heavy Drizzle
7:35 AM 60.8 °F 60.8 °F 100% 29.96 in 1.8 mi Calm Calm - 0.01 in   Drizzle
7:55 AM 60.8 °F 60.8 °F 100% 29.97 in 2.0 mi Calm Calm - 0.02 in   Drizzle
8:15 AM 60.8 °F 60.8 °F 100% 29.97 in 1.8 mi Calm Calm - 0.01 in   Drizzle
8:35 AM 60.8 °F 60.8 °F 100% 29.97 in 2.0 mi Calm Calm - 0.01 in   Light Drizzle
8:55 AM 60.8 °F 60.8 °F 100% 29.97 in 2.5 mi Calm Calm - 0.01 in Rain Light Rain
9:15 AM 62.6 °F 62.6 °F 100% 29.97 in 7.0 mi Calm Calm - N/A   Overcast
9:35 AM 62.6 °F 62.6 °F 100% 29.98 in 1.2 mi Calm Calm - N/A   Overcast
9:55 AM 62.6 °F 62.6 °F 100% 29.98 in 1.2 mi Calm Calm - 0.01 in Rain Light Rain
10:15 AM 62.6 °F 62.6 °F 100% 29.99 in 4.0 mi South 3.5 mph - N/A   Overcast
10:35 AM 62.6 °F 62.6 °F 100% 29.99 in 2.5 mi Calm Calm - N/A   Overcast
10:55 AM 62.6 °F 62.6 °F 100% 29.99 in 5.0 mi Calm Calm - N/A   Overcast
11:15 AM 62.6 °F 62.6 °F 100% 29.99 in 1.2 mi Calm Calm - N/A   Overcast
11:35 AM 64.4 °F 64.4 °F 100% 29.99 in 3.0 mi Calm Calm - N/A   Overcast
11:55 AM 64.4 °F 64.4 °F 100% 29.99 in 7.0 mi Calm Calm - N/A   Overcast
12:15 PM 64.4 °F 64.4 °F 100% 29.99 in 1.8 mi Calm Calm - N/A   Overcast
12:35 PM 64.4 °F 64.4 °F 100% 29.99 in 7.0 mi Calm Calm - N/A   Overcast
12:55 PM 66.2 °F 66.2 °F 100% 29.99 in 10.0 mi Calm Calm - N/A   Overcast
1:15 PM 68.0 °F 64.4 °F 88% 30.00 in 10.0 mi Calm Calm - N/A   Overcast
1:35 PM 68.0 °F 64.4 °F 88% 29.99 in 10.0 mi West 3.5 mph - N/A   Overcast
1:55 PM 68.0 °F 64.4 °F 88% 29.99 in 10.0 mi Calm Calm - N/A   Overcast
2:15 PM 69.8 °F 62.6 °F 78% 29.98 in 10.0 mi Calm Calm - N/A   Overcast
2:35 PM 69.8 °F 62.6 °F 78% 29.98 in 10.0 mi Calm Calm - N/A   Overcast
2:55 PM 69.8 °F 62.6 °F 78% 29.99 in 10.0 mi Calm Calm - N/A   Overcast
3:15 PM 69.8 °F 62.6 °F 78% 29.99 in 10.0 mi Calm Calm - N/A   Overcast
3:35 PM 69.8 °F 64.4 °F 83% 29.98 in 10.0 mi NW 5.8 mph - N/A   Overcast
3:55 PM 69.8 °F 64.4 °F 83% 30.00 in 10.0 mi Calm Calm - N/A Rain Light Rain
4:15 PM 69.8 °F 64.4 °F 83% 30.00 in 10.0 mi WNW 4.6 mph - N/A   Mostly Cloudy
4:35 PM 68.0 °F 64.4 °F 88% 30.00 in 10.0 mi WNW 5.8 mph - N/A   Overcast
4:55 PM 66.2 °F 62.6 °F 88% 30.01 in 10.0 mi West 6.9 mph - N/A   Overcast
5:15 PM 64.4 °F 62.6 °F 94% 30.00 in 10.0 mi Calm Calm - N/A Rain Light Rain
5:35 PM 66.2 °F 62.6 °F 88% 30.00 in 10.0 mi Calm Calm - N/A   Overcast
5:55 PM 68.0 °F 62.6 °F 83% 29.99 in 10.0 mi Calm Calm - N/A   Overcast
6:15 PM 68.0 °F 62.6 °F 83% 29.99 in 10.0 mi Calm Calm - N/A   Overcast
6:35 PM 68.0 °F 62.6 °F 83% 29.99 in 10.0 mi Calm Calm - N/A   Overcast
6:55 PM 69.8 °F 64.4 °F 83% 29.99 in 10.0 mi WSW 5.8 mph - N/A   Overcast
7:15 PM 68.0 °F 62.6 °F 83% 29.99 in 10.0 mi WSW 5.8 mph - N/A   Overcast
7:35 PM 68.0 °F 62.6 °F 83% 29.99 in 10.0 mi WNW 4.6 mph - N/A   Overcast
7:55 PM 66.2 °F 62.6 °F 88% 29.99 in 10.0 mi West 6.9 mph - N/A   Overcast
8:15 PM 64.4 °F 62.6 °F 94% 29.99 in 10.0 mi WNW 3.5 mph - N/A   Overcast
8:35 PM 64.4 °F 62.6 °F 94% 30.00 in 10.0 mi West 3.5 mph - N/A   Overcast
8:55 PM 64.4 °F 62.6 °F 94% 30.00 in 7.0 mi Calm Calm - N/A   Overcast
9:15 PM 64.4 °F 62.6 °F 94% 30.00 in 5.0 mi Calm Calm - N/A   Overcast
9:35 PM 64.4 °F 62.6 °F 94% 30.00 in 10.0 mi Calm Calm - N/A   Overcast
9:55 PM 64.4 °F 62.6 °F 94% 30.01 in 10.0 mi Calm Calm - N/A   Overcast
10:15 PM 64.4 °F 62.6 °F 94% 30.01 in 10.0 mi Calm Calm - N/A   Overcast
10:35 PM 62.6 °F 62.6 °F 100% 30.01 in 10.0 mi Calm Calm - N/A   Overcast
10:55 PM 62.6 °F 62.6 °F 100% 30.01 in 10.0 mi Calm Calm - N/A   Overcast
11:15 PM 62.6 °F 62.6 °F 100% 30.02 in 10.0 mi Calm Calm - N/A   Overcast
11:35 PM 62.6 °F 62.6 °F 100% 30.02 in 7.0 mi Calm Calm - N/A   Overcast
11:55 PM 62.6 °F 62.6 °F 100% 30.01 in 10.0 mi Calm Calm - N/A   Overcast